"Period start","avg(HW err(1)/warn(2) (#))","avg(Visibility (m))","avg(Weather code (#))","avg(Precip intensity (mm/h))","min(HW err(1)/warn(2) (#))","max(HW err(1)/warn(2) (#))","std(HW err(1)/warn(2) (#))","med(HW err(1)/warn(2) (#))","min(Visibility (m))","max(Visibility (m))","std(Visibility (m))","med(Visibility (m))","min(Weather code (#))","max(Weather code (#))","std(Weather code (#))","med(Weather code (#))","min(Precip intensity (mm/h))","max(Precip intensity (mm/h))","std(Precip intensity (mm/h))","med(Precip intensity (mm/h))"
2017-05-25 00:00:00,2,24966,26,0.01,2,2,0,2,17289,32922,5025,25442,0,61,27,20,0.00,0.10,0.03,0.00
2017-05-25 00:10:00,2,26126,0,0.00,2,2,0,2,17680,32426,4557,26738,0,0,0,0,0.00,0.00,0.00,0.00
2017-05-25 00:20:00,2,25404,0,0.00,2,2,0,2,18717,34077,5070,24463,0,0,0,0,0.00,0.00,0.00,0.00
2017-05-25 00:30:00,2,26186,0,0.00,2,2,0,2,17034,32594,4738,26606,0,0,0,0,0.00,0.00,0.00,0.00
2017-05-25 00:40:00,2,11424,8,0.01,2,2,0,2,7556,23677,4569,9876,0,41,16,0,0.00,0.05,0.02,0.00
2017-05-25 00:50:00,2,8730,72,0.04,2,2,0,2,6760,10615,1233,8792,41,77,11,77,0.00,0.10,0.03,0.05
2017-05-25 01:00:00,2,8999,71,0.02,2,2,0,2,6278,10992,1367,9002,71,71,0,71,0.00,0.05,0.02,0.00
2017-05-25 01:10:00,2,8317,69,0.03,2,2,0,2,5178,14053,2617,8176,10,77,20,77,0.00,0.05,0.03,0.03
2017-05-25 01:20:00,2,21646,5,0.00,2,2,0,2,15067,28954,4074,22626,0,10,5,5,0.00,0.00,0.00,0.00
2017-05-25 01:30:00,2,32148,0,0.00,2,2,0,2,27532,40438,4967,29750,0,0,0,0,0.00,0.00,0.00,0.00
2017-05-25 01:40:00,2,34873,0,0.00,2,2,0,2,25097,45823,6818,35150,0,0,0,0,0.00,0.00,0.00,0.00
2017-05-25 01:50:00,2,40733,0,0.00,2,2,0,2,33202,50000,5819,38402,0,0,0,0,0.00,0.00,0.00,0.00
2017-05-25 02:00:00,2,36063,0,0.00,2,2,0,2,25078,46809,8410,37125,0,0,0,0,0.00,0.00,0.00,0.00
2017-05-25 02:10:00,2,42101,0,0.00,2,2,0,2,31507,50000,7209,43196,0,0,0,0,0.00,0.00,0.00,0.00
2017-05-25 02:20:00,2,41350,0,0.00,2,2,0,2,35213,50000,4971,39528,0,0,0,0,0.00,0.00,0.00,0.00
2017-05-25 02:30:00,2,35126,0,0.00,2,2,0,2,29102,40648,3764,34767,0,0,0,0,0.00,0.00,0.00,0.00
2017-05-25 02:40:00,2,29192,0,0.00,2,2,0,2,23807,37772,4481,29882,0,0,0,0,0.00,0.00,0.00,0.00
2017-05-25 02:50:00,2,33621,0,0.00,2,2,0,2,22440,44900,6720,34266,0,0,0,0,0.00,0.00,0.00,0.00
2017-05-25 03:00:00,2,36149,0,0.00,2,2,0,2,28095,50000,7246,34020,0,0,0,0,0.00,0.00,0.00,0.00
2017-05-25 03:10:00,2,29753,0,0.00,2,2,0,2,22472,39730,5008,29060,0,0,0,0,0.00,0.00,0.00,0.00
2017-05-25 03:20:00,2,40846,0,0.00,2,2,0,2,35107,48963,4153,39670,0,0,0,0,0.00,0.00,0.00,0.00
2017-05-25 03:30:00,2,34793,0,0.00,2,2,0,2,24060,43190,5478,35009,0,0,0,0,0.00,0.00,0.00,0.00
2017-05-25 03:40:00,2,32125,0,0.00,2,2,0,2,27119,37958,3820,32367,0,0,0,0,0.00,0.00,0.00,0.00
2017-05-25 03:50:00,2,31688,0,0.00,2,2,0,2,22488,40252,5749,33625,0,0,0,0,0.00,0.00,0.00,0.00
2017-05-25 04:00:00,2,25446,0,0.00,2,2,0,2,13273,42760,8310,25427,0,0,0,0,0.00,0.00,0.00,0.00
2017-05-25 04:10:00,2,25335,0,0.00,2,2,0,2,18908,32632,4446,25115,0,0,0,0,0.00,0.00,0.00,0.00
2017-05-25 04:20:00,2,17991,18,0.21,2,2,0,2,14453,24101,3515,16704,0,51,23,0,0.00,0.85,0.29,0.00
2017-05-25 04:30:00,2,13832,51,1.14,2,2,0,2,10593,17794,2427,13102,51,52,0,51,0.45,1.60,0.40,1.25
2017-05-25 04:40:00,2,16440,58,1.52,2,2,0,2,11732,25373,3364,15824,51,61,5,61,0.45,4.25,1.16,0.97
2017-05-25 04:50:00,2,18041,41,0.21,2,2,0,2,12985,26653,4031,17422,0,61,27,56,0.00,0.85,0.27,0.10
2017-05-25 05:00:00,2,22364,45,0.14,2,2,0,2,19103,30622,3391,21380,0,61,23,51,0.00,0.65,0.20,0.08
2017-05-25 05:10:00,2,15630,57,0.42,2,2,0,2,11864,22471,3316,14048,51,61,5,61,0.05,1.05,0.26,0.33
2017-05-25 05:20:00,2,12513,61,0.84,2,2,0,2,10937,18406,2214,11774,61,61,0,61,0.35,2.00,0.48,0.77
2017-05-25 05:30:00,2,11980,58,0.91,2,2,0,2,10387,14186,1257,11708,51,61,5,61,0.40,1.45,0.38,0.85
2017-05-25 05:40:00,2,12145,61,1.10,2,2,0,2,10883,13339,748,12288,61,61,0,61,0.30,2.55,0.65,0.90
2017-05-25 05:50:00,2,13238,61,0.95,2,2,0,2,10440,16908,2084,13472,61,61,0,61,0.15,2.95,0.85,0.75
2017-05-25 06:00:00,2,12336,61,0.90,2,2,0,2,10156,14830,1650,11911,61,61,0,61,0.15,1.85,0.53,0.82
2017-05-25 06:10:00,2,11241,61,0.87,2,2,0,2,8816,12418,1089,11660,61,61,0,61,0.30,3.35,0.85,0.60
2017-05-25 06:20:00,2,11582,61,1.47,2,2,0,2,8482,13160,1273,11962,61,61,0,61,0.40,5.60,1.45,0.88
2017-05-25 06:30:00,2,13506,60,0.71,2,2,0,2,10290,19169,2557,13027,51,61,3,61,0.20,2.25,0.57,0.57
2017-05-25 06:40:00,2,26393,51,0.17,2,2,0,2,20913,34055,4176,25516,51,51,0,51,0.00,0.45,0.12,0.15
2017-05-25 06:50:00,2,27905,55,0.30,2,2,0,2,21568,36278,3755,28126,51,61,5,51,0.15,0.85,0.22,0.20
2017-05-25 07:00:00,2,18074,52,0.39,2,2,0,2,15705,19716,1117,18079,51,61,3,51,0.10,0.80,0.22,0.35
2017-05-25 07:10:00,2,13343,57,0.94,2,2,0,2,10441,15829,1873,14079,51,61,5,61,0.50,1.65,0.35,0.85
2017-05-25 07:20:00,2,10820,61,1.15,2,2,0,2,8358,14336,2133,10360,61,61,0,61,0.15,3.25,0.85,0.88
2017-05-25 07:30:00,2,9914,61,1.11,2,2,0,2,8528,12196,1207,9737,61,61,0,61,0.15,3.20,0.81,0.78
2017-05-25 07:40:00,2,9790,61,1.00,2,2,0,2,7511,13366,1807,9412,61,61,0,61,0.25,2.05,0.48,1.05
2017-05-25 07:50:00,2,12085,59,0.42,2,2,0,2,9302,15353,1820,12271,51,61,4,61,0.20,0.70,0.17,0.40
2017-05-25 08:00:00,2,11770,51,0.74,2,2,0,2,9209,13649,1226,11869,51,52,0,51,0.45,1.15,0.24,0.75
2017-05-25 08:10:00,2,10885,51,0.75,2,2,0,2,8676,15252,1883,10506,51,52,0,51,0.30,2.05,0.48,0.62
2017-05-25 08:20:00,2,11752,56,0.47,2,2,0,2,9242,15260,1746,11912,51,61,5,56,0.10,0.95,0.28,0.42
2017-05-25 08:30:00,2,10939,56,0.64,2,2,0,2,6766,14463,2272,11050,51,61,5,56,0.15,1.20,0.32,0.55
2017-05-25 08:40:00,2,9360,60,0.77,2,2,0,2,8348,11148,747,9298,51,61,3,61,0.20,1.55,0.45,0.80
2017-05-25 08:50:00,2,9768,73,0.04,2,2,0,2,7835,11889,1226,9960,61,77,5,74,0.00,0.10,0.03,0.05
2017-05-25 09:00:00,2,9081,72,0.00,2,2,0,2,6920,10454,1138,9140,41,77,11,77,0.00,0.00,0.00,0.00
2017-05-25 09:10:00,2,11928,32,0.00,2,2,0,2,9377,14566,1584,12048,10,41,14,41,0.00,0.00,0.00,0.00
2017-05-25 09:20:00,2,13977,29,0.01,2,2,0,2,11638,15244,1219,14457,0,71,34,5,0.00,0.15,0.05,0.00
2017-05-25 09:30:00,2,10539,71,0.07,2,2,0,2,9216,13709,1200,10377,71,71,0,71,0.00,0.15,0.06,0.05
2017-05-25 09:40:00,2,12744,73,0.01,2,2,0,2,10653,17301,2078,11818,71,77,3,71,0.00,0.05,0.02,0.00
2017-05-25 09:50:00,2,16145,62,0.00,2,2,0,2,13062,21405,2227,15735,0,77,31,77,0.00,0.00,0.00,0.00
2017-05-25 10:00:00,2,25269,0,0.00,2,2,0,2,16853,33270,6240,22503,0,0,0,0,0.00,0.00,0.00,0.00
2017-05-25 10:10:00,2,31938,0,0.00,2,2,0,2,24666,41425,5221,31265,0,0,0,0,0.00,0.00,0.00,0.00
2017-05-25 10:20:00,2,33424,0,0.00,2,2,0,2,24060,40416,5248,33842,0,0,0,0,0.00,0.00,0.00,0.00
2017-05-25 10:30:00,2,33321,0,0.00,2,2,0,2,27716,40498,3829,32878,0,0,0,0,0.00,0.00,0.00,0.00
2017-05-25 10:40:00,2,40435,0,0.00,2,2,0,2,34426,50000,4637,39629,0,0,0,0,0.00,0.00,0.00,0.00
2017-05-25 10:50:00,2,32652,0,0.00,2,2,0,2,26243,40822,4047,31974,0,0,0,0,0.00,0.00,0.00,0.00
2017-05-25 11:00:00,2,34966,0,0.00,2,2,0,2,25938,45219,5929,33318,0,0,0,0,0.00,0.00,0.00,0.00
2017-05-25 11:10:00,2,38772,0,0.00,2,2,0,2,31308,43044,4718,41043,0,0,0,0,0.00,0.00,0.00,0.00
2017-05-25 11:20:00,2,45307,0,0.00,2,2,0,2,37704,50000,4175,45928,0,0,0,0,0.00,0.00,0.00,0.00
2017-05-25 11:30:00,2,49305,0,0.00,2,2,0,2,45792,50000,1249,50000,0,0,0,0,0.00,0.00,0.00,0.00
2017-05-25 11:40:00,2,44736,0,0.00,2,2,0,2,39482,50000,4081,42516,0,0,0,0,0.00,0.00,0.00,0.00
2017-05-25 11:50:00,2,48096,0,0.00,2,2,0,2,40850,50000,2647,48702,0,0,0,0,0.00,0.00,0.00,0.00
2017-05-25 12:00:00,2,49212,0,0.00,2,2,0,2,42972,50000,2095,50000,0,0,0,0,0.00,0.00,0.00,0.00
2017-05-25 12:10:00,2,49974,0,0.00,2,2,0,2,49735,50000,80,50000,0,0,0,0,0.00,0.00,0.00,0.00
2017-05-25 12:20:00,2,50000,0,0.00,2,2,0,2,50000,50000,0,50000,0,0,0,0,0.00,0.00,0.00,0.00
2017-05-25 12:30:00,2,49860,0,0.00,2,2,0,2,49117,50000,292,50000,0,0,0,0,0.00,0.00,0.00,0.00
2017-05-25 12:40:00,2,48252,0,0.00,2,2,0,2,39500,50000,3584,50000,0,0,0,0,0.00,0.00,0.00,0.00
2017-05-25 12:50:00,2,50000,0,0.00,2,2,0,2,50000,50000,0,50000,0,0,0,0,0.00,0.00,0.00,0.00
2017-05-25 13:00:00,2,49841,0,0.00,2,2,0,2,48414,50000,476,50000,0,0,0,0,0.00,0.00,0.00,0.00
2017-05-25 13:10:00,2,35514,0,0.00,2,2,0,2,9134,50000,16484,44645,0,0,0,0,0.00,0.00,0.00,0.00
2017-05-25 13:20:00,2,10650,0,0.00,2,2,0,2,6614,17315,3631,9214,0,0,0,0,0.00,0.00,0.00,0.00
2017-05-25 13:30:00,2,19658,0,0.00,2,2,0,2,16567,23745,1707,19499,0,0,0,0,0.00,0.00,0.00,0.00
2017-05-25 13:40:00,2,15197,0,0.00,2,2,0,2,11718,18145,1956,14995,0,0,0,0,0.00,0.00,0.00,0.00
2017-05-25 13:50:00,2,18927,0,0.00,2,2,0,2,10761,27400,5950,18028,0,0,0,0,0.00,0.00,0.00,0.00
2017-05-25 14:00:00,2,28445,0,0.00,2,2,0,2,16933,47325,9007,25140,0,0,0,0,0.00,0.00,0.00,0.00
2017-05-25 14:10:00,2,50000,0,0.00,2,2,0,2,50000,50000,0,50000,0,0,0,0,0.00,0.00,0.00,0.00
2017-05-25 14:20:00,2,50000,0,0.00,2,2,0,2,50000,50000,0,50000,0,0,0,0,0.00,0.00,0.00,0.00
2017-05-25 14:30:00,2,50000,0,0.00,2,2,0,2,50000,50000,0,50000,0,0,0,0,0.00,0.00,0.00,0.00
2017-05-25 14:40:00,2,50000,0,0.00,2,2,0,2,50000,50000,0,50000,0,0,0,0,0.00,0.00,0.00,0.00
2017-05-25 14:50:00,2,49746,0,0.00,2,2,0,2,48044,50000,591,50000,0,0,0,0,0.00,0.00,0.00,0.00
2017-05-25 15:00:00,2,50000,0,0.00,2,2,0,2,50000,50000,0,50000,0,0,0,0,0.00,0.00,0.00,0.00
2017-05-25 15:10:00,2,50000,0,0.00,2,2,0,2,50000,50000,0,50000,0,0,0,0,0.00,0.00,0.00,0.00
2017-05-25 15:20:00,2,50000,0,0.00,2,2,0,2,50000,50000,0,50000,0,0,0,0,0.00,0.00,0.00,0.00
2017-05-25 15:30:00,2,50000,0,0.00,2,2,0,2,50000,50000,0,50000,0,0,0,0,0.00,0.00,0.00,0.00
2017-05-25 15:40:00,2,49819,0,0.00,2,2,0,2,48609,50000,422,50000,0,0,0,0,0.00,0.00,0.00,0.00
2017-05-25 15:50:00,2,49910,0,0.00,2,2,0,2,49096,50000,271,50000,0,0,0,0,0.00,0.00,0.00,0.00
2017-05-25 16:00:00,2,50000,0,0.00,2,2,0,2,50000,50000,0,50000,0,0,0,0,0.00,0.00,0.00,0.00
2017-05-25 16:10:00,2,50000,0,0.00,2,2,0,2,50000,50000,0,50000,0,0,0,0,0.00,0.00,0.00,0.00
2017-05-25 16:20:00,2,50000,0,0.00,2,2,0,2,50000,50000,0,50000,0,0,0,0,0.00,0.00,0.00,0.00
2017-05-25 16:30:00,2,50000,0,0.00,2,2,0,2,50000,50000,0,50000,0,0,0,0,0.00,0.00,0.00,0.00
2017-05-25 16:40:00,2,49913,0,0.00,2,2,0,2,49130,50000,261,50000,0,0,0,0,0.00,0.00,0.00,0.00
2017-05-25 16:50:00,2,49603,0,0.00,2,2,0,2,47503,50000,826,50000,0,0,0,0,0.00,0.00,0.00,0.00
2017-05-25 17:00:00,2,50000,0,0.00,2,2,0,2,50000,50000,0,50000,0,0,0,0,0.00,0.00,0.00,0.00
2017-05-25 17:10:00,2,49883,0,0.00,2,2,0,2,49386,50000,234,50000,0,0,0,0,0.00,0.00,0.00,0.00
2017-05-25 17:20:00,2,49884,0,0.00,2,2,0,2,48931,50000,319,50000,0,0,0,0,0.00,0.00,0.00,0.00
2017-05-25 17:30:00,2,50000,0,0.00,2,2,0,2,50000,50000,0,50000,0,0,0,0,0.00,0.00,0.00,0.00
2017-05-25 17:40:00,2,49593,0,0.00,2,2,0,2,46896,50000,944,50000,0,0,0,0,0.00,0.00,0.00,0.00
2017-05-25 17:50:00,2,49983,0,0.00,2,2,0,2,49833,50000,50,50000,0,0,0,0,0.00,0.00,0.00,0.00
2017-05-25 18:00:00,2,49020,0,0.00,2,2,0,2,44096,50000,1818,50000,0,0,0,0,0.00,0.00,0.00,0.00
2017-05-25 18:10:00,2,50000,0,0.00,2,2,0,2,50000,50000,0,50000,0,0,0,0,0.00,0.00,0.00,0.00
2017-05-25 18:20:00,2,49826,0,0.00,2,2,0,2,48263,50000,521,50000,0,0,0,0,0.00,0.00,0.00,0.00
2017-05-25 18:30:00,2,50000,0,0.00,2,2,0,2,50000,50000,0,50000,0,0,0,0,0.00,0.00,0.00,0.00
2017-05-25 18:40:00,2,49704,0,0.00,2,2,0,2,48316,50000,583,50000,0,0,0,0,0.00,0.00,0.00,0.00
2017-05-25 18:50:00,2,49655,0,0.00,2,2,0,2,46612,50000,1015,50000,0,0,0,0,0.00,0.00,0.00,0.00
2017-05-25 19:00:00,2,49273,0,0.00,2,2,0,2,46569,50000,1177,50000,0,0,0,0,0.00,0.00,0.00,0.00
2017-05-25 19:10:00,2,49175,0,0.00,2,2,0,2,43691,50000,1917,50000,0,0,0,0,0.00,0.00,0.00,0.00
2017-05-25 19:20:00,2,50000,0,0.00,2,2,0,2,50000,50000,0,50000,0,0,0,0,0.00,0.00,0.00,0.00
2017-05-25 19:30:00,2,49752,0,0.00,2,2,0,2,47525,50000,742,50000,0,0,0,0,0.00,0.00,0.00,0.00
2017-05-25 19:40:00,2,49970,0,0.00,2,2,0,2,49699,50000,90,50000,0,0,0,0,0.00,0.00,0.00,0.00
2017-05-25 19:50:00,2,50000,0,0.00,2,2,0,2,50000,50000,0,50000,0,0,0,0,0.00,0.00,0.00,0.00
2017-05-25 20:00:00,2,49986,0,0.00,2,2,0,2,49865,50000,40,50000,0,0,0,0,0.00,0.00,0.00,0.00
2017-05-25 20:10:00,2,49363,0,0.00,2,2,0,2,44554,50000,1627,50000,0,0,0,0,0.00,0.00,0.00,0.00
2017-05-25 20:20:00,2,50000,0,0.00,2,2,0,2,50000,50000,0,50000,0,0,0,0,0.00,0.00,0.00,0.00
2017-05-25 20:30:00,2,50000,0,0.00,2,2,0,2,50000,50000,0,50000,0,0,0,0,0.00,0.00,0.00,0.00
2017-05-25 20:40:00,2,49971,0,0.00,2,2,0,2,49713,50000,86,50000,0,0,0,0,0.00,0.00,0.00,0.00
2017-05-25 20:50:00,2,50000,0,0.00,2,2,0,2,50000,50000,0,50000,0,0,0,0,0.00,0.00,0.00,0.00
2017-05-25 21:00:00,2,50000,0,0.00,2,2,0,2,50000,50000,0,50000,0,0,0,0,0.00,0.00,0.00,0.00
2017-05-25 21:10:00,2,48367,0,0.00,2,2,0,2,44556,50000,2151,50000,0,0,0,0,0.00,0.00,0.00,0.00
2017-05-25 21:20:00,2,47788,0,0.00,2,2,0,2,44165,50000,2209,48231,0,0,0,0,0.00,0.00,0.00,0.00
2017-05-25 21:30:00,2,48438,0,0.00,2,2,0,2,42354,50000,2593,50000,0,0,0,0,0.00,0.00,0.00,0.00
2017-05-25 21:40:00,2,49011,0,0.00,2,2,0,2,45292,50000,1855,50000,0,0,0,0,0.00,0.00,0.00,0.00
2017-05-25 21:50:00,2,46696,0,0.00,0,2,1,2,34868,50000,4832,50000,0,0,0,0,0.00,0.00,0.00,0.00
2017-05-25 22:00:00,2,49176,0,0.00,2,2,0,2,43442,50000,1931,50000,0,0,0,0,0.00,0.00,0.00,0.00
2017-05-25 22:10:00,2,47239,0,0.00,2,2,0,2,38183,50000,4228,49856,0,0,0,0,0.00,0.00,0.00,0.00
2017-05-25 22:20:00,2,40858,0,0.00,2,2,0,2,21770,50000,8132,40328,0,0,0,0,0.00,0.00,0.00,0.00
2017-05-25 22:30:00,2,45940,0,0.00,2,2,0,2,38208,50000,4160,47100,0,0,0,0,0.00,0.00,0.00,0.00
2017-05-25 22:40:00,2,41263,0,0.00,2,2,0,2,25154,50000,9245,45831,0,0,0,0,0.00,0.00,0.00,0.00
2017-05-25 22:50:00,2,41161,0,0.00,2,2,0,2,27328,50000,8200,42302,0,0,0,0,0.00,0.00,0.00,0.00
2017-05-25 23:00:00,2,38442,0,0.00,2,2,0,2,25402,50000,7555,37600,0,0,0,0,0.00,0.00,0.00,0.00
2017-05-25 23:10:00,2,37990,0,0.00,2,2,0,2,25102,47499,6870,40410,0,0,0,0,0.00,0.00,0.00,0.00
2017-05-25 23:20:00,2,35585,0,0.00,2,2,0,2,24572,50000,8336,33319,0,0,0,0,0.00,0.00,0.00,0.00
2017-05-25 23:30:00,2,38989,0,0.00,2,2,0,2,29068,49954,6963,39151,0,0,0,0,0.00,0.00,0.00,0.00
2017-05-25 23:40:00,2,31681,0,0.00,2,2,0,2,21463,50000,10347,28324,0,0,0,0,0.00,0.00,0.00,0.00
2017-05-25 23:50:00,2,36164,0,0.00,0,2,1,2,23030,48849,8058,35478,0,0,0,0,0.00,0.00,0.00,0.00
